Location: Philomena
(55.1756°N, 111.6233°W)
Time: 10:46:14
(UTC+00:00)

PCSat - Pass Details

Date: 10 December 2023
Orbit: 784 x 791 km, 67.0° (Epoch: 23 February)

Event Time Altitude Azimuth Distance (km) Brightness Sun altitude
Exits shadow 13:18:14 29° 316° (NW) 1,417 10.4 -18.8°
Maximum altitude 13:19:15 31° 337° (NNW) 1,359 10.5 -18.6°
Drops below altitude 10° 13:24:03 10° 39° (NE) 2,366 12.3 -18.0°
Sets 13:26:45 0° 50° (NE) 3,298 13.3 -17.6°
